Regional Weather Roundup
Issued by NWS

Home | Current Version | Previous Version | Text Only | Print | Product List | Glossary On
Versions: 1 2 3 4 5 6 7 8 9 10 11 12 13 14 15 16 17 18 19 20 21 22 23 24 25 26
000
ASUS45 KTFX 291710
RWRMT
MONTANA REGIONAL WEATHER ROUNDUP
NATIONAL WEATHER SERVICE GREAT FALLS MT
1100 AM MDT THU JUN 29 2017

NOTE: "FAIR" INDICATES FEW OR NO CLOUDS BELOW 12000 FEET WITH NO
SIGNIFICANT WEATHER AND/OR OBSTRUCTIONS TO VISIBILITY.

MTZ001>007-043-291800-
WEST OF THE DIVIDE

CITY           SKY/WX    TMP DP  RH WIND       PRES   REMARKS
KALISPELL      SUNNY     67  46  47 VRB3      30.10R
MISSOULA       CLOUDY    66  46  48 W5        30.12R
BUTTE          MOSUNNY   56  42  59 MISG      30.16R
MULLAN PASS    PTSUNNY   51  44  77 VRB3      30.19R
ANACONDA         N/A     55  43  62 N10       30.15S
DEER LODGE       N/A     57  43  58 N7        30.17R
EUREKA           N/A     66  46  48 CALM      30.11S
HAMILTON         N/A     57  45  62 NW3       30.13R
$$

MTZ008-052>055-291800-
SOUTHWEST MONTANA

CITY           SKY/WX    TMP DP  RH WIND       PRES   REMARKS
BOZEMAN        CLOUDY    61  50  67 NW6       30.11S
DILLON         SUNNY     59  44  57 W8        30.11R
W YELLOWSTONE  CLOUDY    46  43  87 S8        30.19R
ENNIS          CLOUDY    54  45  71 N12       30.18R
THREE FORKS      N/A     64  48  56 N3        30.09S
$$

MTZ009-010-012-014-046-048-049-054-291800-
EAST SLOPES AND CENTRAL MONTANA

CITY           SKY/WX    TMP DP  RH WIND       PRES   REMARKS
CUT BANK       CLOUDY    55  48  77 N15       30.15R
GREAT FALLS    CLOUDY    56  46  69 W10       30.16R
MALMSTROM AFB  CLOUDY    56  48  73 NW8       30.15R
HELENA         CLOUDY    58  46  64 NW15      30.15R
CHOTEAU          N/A     59  46  63 N10       30.17R
$$

MTZ011-013-016-021-045-047-050-051-291800-
NORTH CENTRAL MONTANA

CITY           SKY/WX    TMP DP  RH WIND       PRES   REMARKS
HAVRE          CLOUDY    65  49  56 NW17      30.06R
LEWISTOWN      CLOUDY    57  45  64 NW13G21   30.12R
N BAR RANCH    PTSUNNY   61  43  51 NW24      30.12R
CHINOOK          N/A     63  48  59 W12G17    30.03S
FORT BENTON      N/A     63  46  55 MISG      30.12S
$$

MTZ017>020-022>027-061-062-291800-
NORTHEAST MONTANA

CITY           SKY/WX    TMP DP  RH WIND       PRES   REMARKS
GLASGOW        SUNNY     72  48  42 W16G28    29.94R
JORDAN           N/A     72  47  40 NW22G30   29.97R
SIDNEY         CLOUDY    74  49  41 N14       29.87R
WOLF POINT     SUNNY     78  46  32 N12G18    29.89R
MALTA          CLOUDY    66  46  48 N14G22    30.00R
PLENTYWOOD       N/A     72  48  43 NW12G17   29.89R
POPLAR           N/A     73  48  40 N10       29.89R
$$

MTZ028>42-056>058-291800-
SOUTHCENTRAL AND SOUTHEAST MONTANA

CITY           SKY/WX    TMP DP  RH WIND       PRES   REMARKS
BAKER          CLOUDY    69  50  50 W14       29.91R
BILLINGS       CLOUDY    58  49  72 E5        30.09R
LIVINGSTON     MOSUNNY   63  46  54 W10       30.09F
MILES CITY     MOSUNNY   73  47  39 NW14G22   29.94R
BIG TIMBER     PTSUNNY   61  45  55 VRB7      30.12S
LAUREL           N/A     61  45  55 NE3       30.07F
ROUNDUP          N/A     65  39  38 NW15      29.98R
$$

REGIONAL REPORTS...DAKOTAS

CITY           SKY/WX    TMP DP  RH WIND       PRES   REMARKS
WILLISTON      MOSUNNY   78  49  35 N7        29.86R
MINOT          CLOUDY    68  53  58 NW21G35   29.87R
DICKINSON      CLOUDY    70  45  40 SW8       29.85R
BEACH            N/A     72  46  40 NW13G20   29.91R
CROSBY           N/A     73  52  46 VRB5      29.87R
TIOGA          PTSUNNY   73  48  40 VRB3      29.87R
WATFORD CITY     N/A     75  50  41 VRB6      29.84R
BISMARCK       LGT RAIN  70  54  56 S7        29.88R
GRAND FORKS    CLOUDY    70  63  78 N3        29.81R
FARGO          CLOUDY    68  61  78 NW6       29.82R
BUFFALO SD       N/A     63  55  75 S8        29.88R
RAPID CITY     LGT RAIN  59  53  80 N8        29.95R
$$

REGIONAL REPORTS...WYOMING/IDAHO/WASHINGTON

CITY           SKY/WX    TMP DP  RH WIND       PRES   REMARKS
GILLETTE       MOSUNNY   66  48  52 NW17G24   30.01R
SHERIDAN       CLOUDY    64  46  52 NW20      30.06R
BUFFALO WY     CLOUDY    61  42  49 N30G43    30.04R
CODY           CLOUDY    58  45  62 NE14      30.11R
YELLOWSTONE LA   N/A     46  41  82 CALM      30.23R
IDAHO FALLS    SUNNY     63  45  51 CALM      30.08S
SALMON         MOSUNNY   64  43  45 NW3       30.08R
BOISE          SUNNY     70  37  29 NW9       30.06R
SPOKANE        MOSUNNY   64  53  67 E5        30.11R
$$

REGIONAL REPORTS...ALBERTA

CITY           SKY/WX    TMP DP  RH WIND       PRES   REMARKS
EDMONTON       MOSUNNY   64  55  72 W6        30.05S
CALGARY        PTSUNNY   61  46  59 N9        30.14R
LETHBRIDGE     PTSUNNY   59  50  72 N12       30.13R
MEDICINE HAT   PTSUNNY   61  48  63 NW9       30.07S
WATERTON GATE    N/A     57  46  67 NW5         N/A
MILK RIVER       N/A     59  52  77 N14G20      N/A
ONEFOUR          N/A     59  46  63 N20         N/A
$$

REGIONAL REPORTS...SASKATCHEWAN

CITY           SKY/WX    TMP DP  RH WIND       PRES   REMARKS
SWIFT CURRENT  CLOUDY    50  48  93 N17G23    30.02R
REGINA         PTSUNNY   64  54  68 NW20      29.91R
SASKATOON      CLOUDY    54  41  62 N15       30.01S
VAL MARIE        N/A     61  48  63 N14         N/A
ROCKGLEN         N/A     63  52  67 NW14G20     N/A
$$




USA.gov is the U.S. government's official web portal to all federal, state and local government web resources and services.